Weather History for Watertown, SD

Change the Weather History Date:

Friday, March 1, 2013

  Actual Average Record
Temperature  
Mean Temperature 13 °F 23 °F  
Max Temperature 24 °F 32 °F 66 °F (1992)
Min Temperature 1 °F 14 °F -19 °F (2009)
Degree Days  
Heating Degree Days 52 42  
Month to date heating degree days 52 42  
Since 1 July heating degree days 6415 6453  
Cooling Degree Days 0 0  
Month to date cooling degree days 0 0  
Year to date cooling degree days 0 0  
Moisture  
Dew Point 7 °F    
Average Humidity 87    
Maximum Humidity 100    
Minimum Humidity 73    
Precipitation  
Precipitation 0.00 in 0.03 in 0.49 in (2007)
Month to date precipitation 0.00 0.03  
Year to date precipitation 1.22 1.11  
Snow  
Snow 0.00 in - - ()
Month to date snowfall 0.0  
Since 1 July snowfall 24.1  
Snow Depth 15.00 in    
Sea Level Pressure  
Sea Level Pressure 30.36 in    
Wind  
Wind Speed 4 mph (North)    
Max Wind Speed 9 mph    
Max Gust Speed 10 mph    
Visibility 6 miles    
Events Fog    
T = Trace of Precipitation, MM = Missing Value Source: NWS Daily Summary

Daily Weather History Graph

Daily Weather History Graph

Search for Another Location

Airport:

Trip Planner

Search our weather history database for the weather conditions in past years. The results will help you decide how hot, cold, wet, or windy it might be!

Date:

Astronomy

Mar. 01, 2013 Rise Set
Actual Time 7:05 AM CST 6:16 PM CST
Civil Twilight 6:36 AM CST 6:45 PM CST
Nautical Twilight 6:02 AM CST 7:19 PM CST
Astronomical Twilight 5:28 AM CST 7:53 PM CST
Moon 11:05 PM CST 8:40 AM CST
Length of Visible Light 12h 09m
Length of Day
11h 10m
Waning Gibbous, 83% of the Moon is Illuminated
Mar 1
Waning Gibbous
Mar 4
Last Quarter
Mar 11
New
Mar 19
First Quarter
Mar 27
Full

Hourly Weather History & Observations

Time (CST) Temp. Windchill Dew Point Humidity Pressure Visibility Wind Dir Wind Speed Gust Speed Precip Events Conditions
12:53 AM 18.0 °F 6.9 °F 15.1 °F 88% 30.32 in 10.0 mi North 9.2 mph - N/A   Overcast
2:13 AM 12.2 °F 2.9 °F 10.4 °F 92% 30.24 in 10.0 mi North 5.8 mph - N/A   Scattered Clouds
2:53 AM 10.9 °F 1.4 °F 9.0 °F 92% 30.34 in 10.0 mi North 5.8 mph - N/A   Clear
4:53 AM 7.0 °F -1.7 °F 5.0 °F 92% 30.36 in 10.0 mi North 4.6 mph - N/A   Clear
5:16 AM 6.8 °F -0.1 °F 3.2 °F 85% 30.26 in 10.0 mi NNE 3.5 mph - N/A   Mostly Cloudy
5:26 AM 6.8 °F -2.0 °F 3.2 °F 85% 30.26 in 10.0 mi North 4.6 mph - N/A   Scattered Clouds
6:22 AM 5.0 °F -5.6 °F 3.2 °F 92% 30.27 in 5.0 mi NNW 5.8 mph - N/A   Partly Cloudy
6:53 AM 3.9 °F -8.2 °F 1.9 °F 91% 30.39 in 10.0 mi NNW 6.9 mph - N/A   Clear
7:53 AM 1.9 °F -5.6 °F -2.0 °F 83% 30.40 in 10.0 mi North 3.5 mph - N/A   Clear
8:53 AM 7.0 °F 0.1 °F 3.9 °F 87% 30.41 in 6.0 mi NNE 3.5 mph - N/A   Clear
9:53 AM 10.9 °F 2.9 °F 8.1 °F 88% 30.42 in 10.0 mi NNW 4.6 mph - N/A   Clear
10:53 AM 16.0 °F 8.8 °F 10.9 °F 81% 30.43 in 10.0 mi North 4.6 mph - N/A   Clear
12:53 PM 21.9 °F 15.7 °F 15.1 °F 75% 30.42 in 10.0 mi NNE 4.6 mph - N/A   Clear
1:53 PM 23.0 °F 15.8 °F 16.0 °F 74% 30.40 in 10.0 mi North 5.8 mph - N/A   Clear
2:53 PM 23.0 °F 15.8 °F 16.0 °F 74% 30.40 in 10.0 mi NW 5.8 mph - N/A   Clear
3:53 PM 23.0 °F 15.8 °F 16.0 °F 74% 30.40 in 10.0 mi NNW 5.8 mph - N/A   Clear
4:53 PM 21.9 °F 13.4 °F 15.1 °F 75% 30.42 in 10.0 mi NW 6.9 mph - N/A   Clear
5:53 PM 19.0 °F 11.1 °F 12.9 °F 77% 30.43 in 10.0 mi North 5.8 mph - N/A   Clear
6:53 PM 16.0 °F 10.4 °F 12.0 °F 84% 30.45 in 10.0 mi NNE 3.5 mph - N/A   Clear
8:53 PM 8.1 °F - 6.1 °F 92% 30.46 in 10.0 mi Calm Calm - N/A   Clear
9:53 PM 10.0 °F - 6.1 °F 84% 30.45 in 6.0 mi Calm Calm - N/A   Clear
10:15 PM 8.6 °F - 6.8 °F 92% 30.32 in 1.2 mi Calm Calm - N/A   Clear
10:17 PM 6.8 °F - 6.8 °F 100% 30.32 in 0.8 mi Calm Calm - N/A   Mist
10:28 PM 6.8 °F - 3.2 °F 85% 30.31 in 0.5 mi Calm Calm - N/A Fog Light Freezing Fog
10:34 PM 6.8 °F - 3.2 °F 85% 30.31 in 1.0 mi Calm Calm - N/A   Mist
10:42 PM 8.6 °F - 6.8 °F 92% 30.30 in 0.2 mi Calm Calm - N/A Fog Light Freezing Fog
10:53 PM 7.0 °F - 6.1 °F 96% 30.42 in 0.2 mi Calm Calm - N/A Fog Light Freezing Fog
11:16 PM 5.0 °F - 1.4 °F 85% 30.30 in 0.5 mi Calm Calm - N/A Fog Light Freezing Fog
11:35 PM 5.0 °F - 3.2 °F 92% 30.31 in 1.0 mi Calm Calm - N/A   Mist
11:38 PM 5.0 °F - 3.2 °F 92% 30.31 in 1.5 mi Calm Calm - N/A   Partly Cloudy
11:40 PM 3.2 °F - 1.4 °F 92% 30.31 in 1.0 mi Calm Calm - N/A   Mist
11:53 PM 1.9 °F - -0.9 °F 88% 30.42 in 2.0 mi Calm Calm - N/A   Partly Cloudy